Vorticity
15 13 18 19 16 10 7 -8 0 7 7 20 17 1 5 10 8 12 13 9 11 13 -7 2 0 -6 5 -19 -1 4 11 -0 8 7 6 12 14 1 9 -11 14 6 8 9
14 17 17 16 13 16 20 9 10 13 7 4 3 9 1 13 7 10 6 10 3 12 14 22 39 18 24 17 12 12 24 14 7 22 41 20 7 10 6 2 -10 -4 -6 8
9 10 12 12 17 18 22 23 6 11 6 20 -0 9 11 12 13 14 12 12 15 16 12 11 -11 -1 17 14 11 14 1 3 -14 -20 -1 -0 30 22 10 0 -2 -4 -10 -14
10 9 11 9 8 13 17 14 12 7 -12 -2 6 12 -3 2 -9 4 6 13 10 16 16 22 13 17 8 1 7 21 8 -4 8 13 5 -5 -8 -6 -3 -4 5 5 1 12
11 11 7 9 10 9 7 6 13 14 12 14 13 0 -15 7 12 6 7 9 14 9 7 4 -4 4 15 12 15 18 -12 -21 35 17 2 1 13 18 20 7 12 13 6 -1
7 6 9 10 7 6 9 7 7 9 8 14 16 6 6 22 11 7 18 27 16 12 16 19 1 10 14 -1 8 16 32 35 18 15 35 33 42 21 18 17 9 11 12 13
9 10 8 8 9 10 11 9 10 14 5 12 17 16 7 12 28 13 14 9 17 9 11 16 16 17 10 11 11 2 7 -8 -8 13 33 11 17 19 15 23 31 11 11 10
8 6 7 9 8 8 7 6 10 16 10 13 11 12 19 9 15 13 15 16 7 12 18 14 14 17 16 16 13 12 15 18 -6 -4 27 -29 -29 -7 1 7 11 12 12 13
11 9 7 7 8 10 9 7 13 22 3 7 11 12 9 13 12 20 10 10 17 21 23 -1 6 -4 -4 21 16 56 28 2 1 -3 4 6 25 37 29 33 18 10 3 4
10 10 9 8 7 6 14 10 27 18 12 11 -1 1 3 12 19 4 17 15 12 11 -2 17 1 0 1 3 12 16 23 40 -7 15 -2 15 4 7 5 6 9 15 13 15
11 11 12 11 9 9 23 16 -1 -4 10 3 5 3 11 18 16 12 5 31 22 16 17 -4 9 17 19 16 -4 -2 -2 5 22 39 2 22 8 16 -12 2 9 3 4 2
12 33 12 12 11 33 20 -4 29 40 0 -21 18 24 17 17 10 9 25 -10 10 6 16 12 22 11 12 7 1 30 14 -16 -9 -10 15 3 4 21 20 10 4 7 7 5
21 3 19 9 24 25 24 13 -21 -0 8 9 18 19 13 16 18 15 16 17 1 -4 -5 -3 9 -6 15 10 22 6 11 3 10 5 15 -1 1 4 5 8 9 7 7 8
25 24 0 13 17 16 22 13 7 15 9 20 3 20 16 14 11 13 10 12 3 17 17 9 -1 -8 10 11 1 7 5 6 8 11 2 -5 -5 3 5 5 3 3 1 0
20 29 11 -17 -0 -0 10 3 5 20 15 20 36 15 12 17 17 22 9 9 18 21 8 -0 8 12 11 2 3 1 3 5 7 -0 10 5 2 1 1 5 13 16 19 24
17 14 19 27 10 7 15 30 21 9 9 9 9 22 18 10 5 6 14 8 12 14 10 9 13 6 0 16 15 18 20 18 18 15 20 12 7 6 8 7 14 23 16 8
18 19 19 18 19 21 26 19 36 11 10 8 14 14 9 4 5 12 12 15 14 11 10 10 9 11 13 3 -4 0 1 7 10 13 21 24 23 26 28 24 8 4 7 1
24 25 23 19 12 7 1 10 17 24 22 8 6 11 18 22 17 11 10 10 11 10 7 8 12 14 11 28 30 25 27 23 23 19 15 7 9 12 12 6 8 8 6 -1
12 8 5 6 7 9 7 7 6 11 1 12 10 7 21 23 7 12 12 8 11 10 8 13 18 15 3 12 13 9 6 9 7 -1 1 11 7 3 2 3 3 1 4 7
15 15 16 6 9 11 13 10 10 14 3 -1 0 14 5 24 18 8 2 17 20 13 21 25 31 15 10 -0 -2 0 6 4 2 12 17 9 6 5 5 5 5 3 12 17
12 7 10 20 14 13 -2 15 6 11 20 21 15 13 14 10 12 11 3 12 11 12 20 3 13 22 22 21 17 16 16 16 9 3 4 6 5 3 3 -0 12 15 14 17
10 12 17 19 3 10 5 16 11 16 8 20 24 16 9 11 9 4 17 13 13 12 12 8 14 15 12 11 9 8 6 6 5 3 5 6 5 -0 10 15 15 15 20 21
14 17 4 2 15 13 10 14 15 10 15 21 12 6 2 10 8 13 10 12 12 12 11 10 5 13 10 7 6 5 5 2 3 5 8 4 11 17 14 14 14 20 19 25
5 3 15 2 17 17 14 14 22 19 21 17 4 4 5 8 10 11 9 11 9 10 9 4 11 14 10 8 4 3 3 4 8 8 13 15 13 14 14 17 21 21 24 23
8 8 14 12 23 17 18 12 14 16 15 5 1 4 4 8 7 14 9 11 15 9 6 5 6 4 2 0 -2 4 8 13 13 15 16 12 13 14 19 21 23 21 22 19
6 16 21 21 17 8 7 7 8 7 7 6 8 11 17 18 11 13 6 9 7 1 13 -0 -2 1 0 -1 3 6 11 14 16 15 11 11 13 18 20 23 25 23 18 14
11 16 27 6 5 7 10 8 5 5 7 8 10 14 10 10 16 10 13 1 7 3 -3 5 7 -2 -1 7 4 8 12 16 15 10 11 14 18 20 22 24 21 18 14 10
Height
3068 3071 3073 3075 3076 3079 3081 3082 3081 3076 3076 3081 3077 3078 3081 3082 3080 3082 3080 3078 3078 3076 3076 3073 3075 3072 3075 3074 3075 3076 3075 3072 3073 3072 3070 3069 3070 3071 3071 3070 3069 3068 3065 3060
3057 3059 3062 3065 3065 3069 3071 3071 3071 3066 3066 3067 3067 3069 3072 3072 3072 3073 3071 3071 3069 3070 3068 3071 3065 3065 3066 3068 3069 3069 3069 3067 3069 3067 3067 3066 3065 3065 3066 3066 3065 3063 3063 3057
3047 3050 3053 3056 3054 3058 3062 3061 3061 3059 3055 3056 3059 3064 3061 3062 3063 3064 3063 3062 3063 3062 3061 3062 3060 3059 3060 3061 3062 3063 3063 3061 3061 3061 3062 3061 3060 3060 3061 3062 3061 3058 3053 3055
3037 3040 3044 3047 3047 3049 3051 3049 3045 3047 3047 3045 3052 3055 3054 3053 3055 3055 3055 3053 3054 3054 3055 3055 3053 3052 3055 3056 3056 3056 3057 3053 3055 3053 3055 3055 3055 3055 3055 3053 3053 3052 3048 3048
3030 3031 3033 3037 3040 3039 3040 3038 3040 3038 3039 3040 3044 3045 3043 3047 3047 3047 3045 3045 3047 3046 3045 3048 3048 3047 3046 3048 3049 3051 3052 3047 3049 3046 3050 3048 3044 3044 3045 3044 3042 3040 3040 3039
3018 3022 3023 3027 3029 3030 3031 3031 3028 3032 3031 3029 3033 3032 3035 3037 3040 3038 3037 3037 3038 3036 3037 3040 3041 3041 3041 3042 3041 3042 3044 3043 3043 3040 3043 3041 3034 3032 3034 3034 3035 3035 3032 3035
3007 3012 3013 3020 3018 3020 3022 3022 3024 3023 3020 3020 3020 3024 3026 3029 3030 3030 3029 3029 3031 3032 3033 3032 3034 3035 3033 3033 3036 3037 3038 3038 3039 3037 3039 3034 3027 3025 3026 3025 3025 3024 3024 3025
2995 3001 3003 3008 3009 3009 3011 3012 3014 3014 3012 3013 3013 3015 3020 3020 3020 3020 3021 3022 3023 3025 3026 3027 3029 3029 3028 3026 3027 3029 3031 3033 3033 3033 3031 3027 3024 3023 3023 3022 3021 3020 3021 3021
2984 2989 2993 2997 2998 2999 2999 3002 3004 3005 3007 3004 3009 3009 3011 3012 3012 3014 3013 3016 3017 3019 3019 3021 3020 3021 3021 3019 3019 3019 3022 3025 3027 3026 3025 3021 3017 3017 3018 3018 3018 3017 3017 3018
2971 2976 2980 2984 2988 2989 2991 2992 2993 2997 2998 2998 3001 3000 3003 3005 3005 3006 3008 3008 3010 3013 3013 3013 3013 3013 3015 3014 3013 3015 3014 3017 3016 3019 3018 3015 3013 3016 3016 3019 3019 3013 3014 3015
2960 2964 2969 2971 2977 2978 2980 2982 2985 2987 2989 2990 2991 2992 2994 2996 2997 2999 3000 3004 3002 3004 3007 3007 3006 3007 3007 3007 3007 3009 3010 3011 3012 3014 3014 3011 3008 3010 3013 3011 3010 3011 3011 3012
2950 2955 2957 2960 2965 2967 2971 2974 2977 2979 2982 2983 2983 2985 2987 2988 2991 2993 2992 2995 2995 2997 2999 3000 3000 3000 3000 3001 3002 3003 3007 3006 3006 3008 3006 3002 3003 3004 3005 3006 3007 3007 3008 3008
2943 2945 2948 2951 2955 2961 2964 2965 2967 2970 2975 2976 2976 2978 2979 2981 2983 2985 2988 2990 2991 2992 2993 2994 2995 2995 2996 2996 2996 2998 2999 2999 2999 3002 3000 2999 2999 3000 3001 3001 3001 3002 3002 3002
2935 2939 2941 2945 2949 2952 2957 2961 2962 2965 2967 2969 2969 2970 2973 2975 2977 2980 2982 2984 2985 2987 2987 2988 2989 2991 2991 2990 2991 2992 2994 2994 2993 2993 2994 2994 2994 2993 2993 2994 2995 2995 2994 2994
2930 2934 2937 2940 2943 2947 2951 2953 2955 2957 2963 2961 2963 2966 2968 2970 2972 2974 2976 2978 2979 2980 2981 2982 2983 2984 2986 2984 2984 2983 2985 2986 2986 2986 2987 2986 2986 2987 2986 2985 2985 2985 2983 2983
2926 2931 2932 2934 2938 2941 2945 2948 2950 2952 2954 2959 2961 2963 2963 2965 2967 2969 2971 2972 2974 2974 2975 2976 2977 2978 2982 2978 2974 2976 2976 2977 2977 2978 2977 2977 2977 2977 2978 2976 2976 2975 2974 2974
2921 2924 2927 2931 2934 2937 2941 2945 2947 2948 2951 2955 2957 2958 2959 2961 2963 2964 2966 2967 2969 2970 2971 2971 2972 2973 2973 2970 2968 2970 2969 2969 2969 2969 2969 2969 2968 2968 2968 2967 2967 2967 2966 2966
2920 2923 2926 2929 2933 2937 2940 2942 2945 2947 2951 2953 2954 2954 2957 2958 2958 2960 2962 2964 2965 2965 2966 2966 2966 2967 2966 2962 2961 2961 2961 2961 2961 2962 2962 2962 2962 2961 2961 2961 2959 2958 2957 2956
2922 2924 2927 2931 2934 2937 2939 2942 2944 2946 2951 2949 2950 2952 2953 2954 2955 2958 2960 2961 2961 2961 2959 2960 2962 2959 2957 2956 2955 2955 2956 2956 2956 2956 2956 2955 2954 2954 2954 2952 2952 2948 2945 2943
2923 2925 2928 2930 2933 2935 2938 2940 2943 2945 2945 2946 2947 2949 2950 2952 2953 2955 2958 2957 2957 2955 2955 2955 2953 2950 2951 2950 2950 2950 2951 2951 2950 2949 2950 2950 2948 2947 2945 2943 2941 2937 2933 2928
2923 2925 2927 2930 2932 2935 2937 2938 2941 2942 2942 2943 2944 2946 2947 2950 2952 2953 2955 2953 2953 2952 2952 2951 2948 2944 2944 2945 2945 2945 2945 2945 2945 2943 2942 2941 2937 2935 2932 2930 2927 2922 2918 2914
2924 2926 2927 2930 2932 2934 2936 2936 2938 2938 2939 2939 2940 2944 2946 2948 2950 2951 2951 2951 2950 2948 2948 2947 2941 2939 2940 2940 2941 2941 2941 2940 2940 2938 2935 2933 2930 2927 2921 2916 2913 2910 2906 2902
2923 2925 2927 2929 2932 2932 2932 2932 2933 2934 2935 2937 2940 2943 2946 2947 2949 2949 2948 2947 2946 2945 2943 2940 2937 2936 2937 2937 2937 2937 2937 2935 2933 2930 2927 2923 2919 2916 2909 2903 2900 2894 2891 2891
2923 2925 2927 2928 2928 2929 2929 2931 2932 2933 2935 2937 2940 2943 2945 2945 2946 2945 2945 2944 2943 2941 2938 2934 2934 2934 2934 2934 2933 2931 2930 2928 2924 2921 2917 2913 2908 2903 2900 2893 2888 2884 2881 2880
2923 2925 2925 2926 2927 2928 2929 2931 2933 2934 2936 2939 2940 2942 2943 2943 2943 2942 2942 2941 2938 2935 2932 2932 2931 2931 2930 2929 2927 2924 2921 2917 2914 2910 2906 2902 2898 2892 2888 2883 2879 2875 2873 2872
2923 2924 2925 2926 2928 2929 2931 2933 2934 2936 2937 2938 2940 2940 2939 2939 2939 2938 2937 2936 2931 2930 2929 2929 2928 2927 2925 2922 2919 2916 2912 2907 2904 2901 2897 2892 2887 2882 2877 2874 2871 2868 2867 2867
2923 2924 2925 2927 2929 2931 2932 2934 2935 2936 2937 2937 2937 2937 2936 2936 2934 2932 2930 2928 2928 2927 2926 2924 2922 2920 2917 2913 2910 2906 2902 2899 2895 2892 2888 2883 2879 2874 2870 2867 2865 2863 2862 2862